DELTA 1 DEB, 13529

Orbit data source: Space-Track

DELTA 1 DEB, 13529 is space debris in LEO originally from a launch on Thu, 29 Jul 1976 UTC launched from the Air Force Western Test Range (AFWTR). Debris objects in space refer to the collection of defunct objects orbiting the Earth. Examples of debris include non-operational satellites, rocket bodies, and fragments generated from explosions, collisions, or faulty payload assembly.

Loading next visibility...
Identifier
13529, 1976-077EB
Orbit
LEO
Country
Flag of USUS
Related business
Manufacturer
Unknown
Mission
Spacecraft
Bus & Motor
Unknown
Mass
Unknown
Launch date (UTC)
1976-07-29 (50 years ago)
Launch vehicle
Unknown
Launch site
Air Force Western Test Range (AFWTR)
Object type
Payload
Rocket body
Debris
Shape & HBR
Unknown shape, 0.1 m
Radar Cross Section
Medium (>0.1 m² and <1 m²)

Expand to show TLE details & history
Last TLE update: 18 hours ago

TLE from 18 hours ago
0 DELTA 1 DEB
1 13529U 76077EB  26171.09755390 -.00000058  00000-0 -35695-3 0  9998
2 13529 101.8531 233.7956 0378787 359.2419  28.5464 11.66132022942221
Epoch: 2026-06-20T02:20Z
TLE epoch observation values (Epoch: 2026-06-20T02:20:28.656Z)
Latitude
29.29686°
Longitude
-76.3707°
Altitude
1,568.891 km
Speed
7.202 km/s
True Right ascension
15h 08m 15s
True Declination
29° 09' 55"
Sunlit
Object was in daylight at epoch
Visualization orbit readout
Latitude
Unknown
Longitude
Unknown
Altitude
Unknown
Speed
Unknown
Apparent Right ascension
Unknown
Apparent Declination
Unknown
Sunlit
N/A
Visualization observer readout
Local Sidereal Time
07:38:26
Azimuth
Unknown
Elevation
Unknown
Doppler factor
Unknown
Orbital elements
Apogee altitude
2,144.87 km
Perigee altitude
1,522.754 km
Semi-major axis
8,211.949 km
Eccentricity
0.03788
Inclination
101.8531°
RAAN
233.7956°
Arg. of periapsis
359.2419°
True anomaly
30.70997°
Mean anomaly
28.5464°
Eccentric anomaly
29.61902°
Mean motion
2.91658 °/min
Orbital period
123.43 mins
BSTAR
-0.00035695
Loading maneuver chart data...
Computing Atmospheric mass density...
Loading historical data...
Loading historical data...
Loading historical data...
Loading historical data...
Loading historical data...
Loading historical data...
Loading historical data...

Documentation

Showing up to 5 results
|